Regional Weather Roundup
Issued by NWS

Home | Current Version | Previous Version | Text Only | Print | Product List | Glossary On
Versions: 1 2 3 4 5 6 7 8 9 10 11 12 13 14 15 16 17 18 19 20 21 22 23 24 25 26 27 28 29 30 31 32 33 34 35 36 37 38 39 40 41 42 43 44 45 46 47 48 49 50
822
ASUS44 KLIX 210210
RWRLA
LOUISIANA WEATHER ROUNDUP
NATIONAL WEATHER SERVICE NEW ORLEANS LA
800 PM CST THU NOV 20 2014

NOTE: "FAIR" INDICATES FEW OR NO CLOUDS BELOW 12,000 FEET WITH NO
      SIGNIFICANT WEATHER AND/OR OBSTRUCTIONS TO VISIBILITY.
      SKY/WX - SKY CONDITION AND SIGNIFICANT WEATHER.
      TMP - AIR TEMPERATURE.    DP   - DEWPOINT TEMPERATURE.
      RH  - RELATIVE HUMIDITY.  PRES - PRESSURE.
      HX  - HEAT INDEX.         WCI  - WIND CHILL INDEX.

*  THESE STATIONS ARE NOT NWS OR FAA STATIONS AND ARE NOT UNDER
   NWS QUALITY CONTROL.

LAZ040-048-061>063-065-066-069-210300-
SOUTHEAST LOUISIANA

CITY           SKY/WX    TMP DP  RH WIND       PRES   REMARKS
N.O. AUDUBON     N/A     58  47  66 MISG        N/A
N.O. INTL ARPT PTCLDY    57  45  64 SE7       30.23R
N.O. LAKEFRONT CLEAR     57  45  64 SE10      30.24S
N.O. DOWNTOWN* FAIR      59  43  55 S5        30.24S
SLIDELL        CLEAR     50  44  80 CALM      30.24R
BATON ROUGE    PTCLDY    57  46  66 SE7       30.21R
BOOTHVILLE     CLEAR     57  49  74 E6        30.26S
BELLE CHASSE   PTCLDY    56  45  66 SE6       30.23S
BOGALUSA*        N/A     54  43  66 SW5       30.25R
NEW ROADS*     FAIR      56  47  72 SE5       30.21R
GONZALES*      FAIR      56  47  71 CALM      30.22R
HAMMOND*       CLEAR     52  45  76 CALM      30.25R
HOUMA*         CLEAR     51  47  85 SE5       30.22S
PORT FOURCHON* CLEAR     63  46  55 SE12      30.26S

$$

LAZ041-044-053-054-210300-
SOUTHWEST LOUISIANA

CITY           SKY/WX    TMP DP  RH WIND       PRES   REMARKS
LAKE CHARLES   PTCLDY    58  50  75 SE9       30.16S
LAFAYETTE      CLEAR     57  48  72 S5        30.19S
PATTERSON      CLEAR     55  48  76 SE6       30.24R
SALT POINT       N/A     58  51  78 SE6       30.20R
NEW IBERIA     CLEAR     51  47  86 SE7       30.20S
CHENAULT AIRPK MOCLDY    57  52  82 SE12      30.17S

$$

LAZ027-028-210300-
CENTRAL LOUISIANA

CITY           SKY/WX    TMP DP  RH WIND       PRES   REMARKS
FORT POLK      PTCLDY    59  52  77 SE10      30.15R
ALEXANDRIA INT MOCLDY    56  50  80 SE7       30.14S
ALEXANDRIA     CLEAR     52  48  86 S3        30.16S

$$

LAZ001-002-210300-
NORTHWEST LOUISIANA

CITY           SKY/WX    TMP DP  RH WIND       PRES   REMARKS
SHREVEPORT     MOCLDY    58  56  93 CALM      30.11R
BARKSDALE AFB  CLOUDY    57  57 100 SE2       30.11S
DTN SHREVEPORT CLOUDY    56  54  93 SE3       30.11S

$$

LAZ014-016-210300-
NORTHEAST LOUISIANA

CITY           SKY/WX    TMP DP  RH WIND       PRES   REMARKS
MONROE         PTCLDY    56  52  86 E6        30.16F
TALLULAH       CLEAR     49  47  93 N3        30.18R

$$




USA.gov is the U.S. government's official web portal to all federal, state and local government web resources and services.